Regional Weather Roundup
Issued by NWS Wilmington, NC

Home | Current Version | Previous Version | Text Only | Print | Product List | Glossary On
Versions: 1 2 3 4 5 6 7 8 9 10 11 12 13 14 15 16 17 18 19 20 21 22 23 24 25 26 27 28 29 30 31 32 33 34 35 36 37 38 39 40 41 42 43 44 45 46 47 48 49 50
000
ASUS42 KILM 160110
RWRILM
RWRILM
REGIONAL HOURLY WEATHER ROUNDUP
NATIONAL WEATHER SERVICE WILMINGTON NC
900 PM EDT MON SEP 15 2014

NOTE: "FAIR" INDICATES FEW OR NO CLOUDS BELOW 12,000 FEET WITH NO
SIGNIFICANT WEATHER AND/OR OBSTRUCTIONS TO VISIBILITY.

...............WFO WILMINGTON COUNTY WARNING AREA...............

......COASTAL NC AND SC COUNTIES......

CITY           SKY/WX    TMP DP  RH WIND       PRES   REMARKS
WILMINGTON     MOCLDY    72  68  87 CALM      30.14R
SOUTHPORT      PTCLDY    71  68  90 N3        30.13S
N MYRTLE BEACH PTCLDY    72  69  90 N5        30.13R
MYRTLE BEACH   PTCLDY    75  70  83 N7        30.13R

......INLAND NC AND SC COUNTIES.......

CITY           SKY/WX    TMP DP  RH WIND       PRES   REMARKS
LUMBERTON      MOCLDY    72  69  90 CALM      30.14R
ELIZABETHTOWN  CLOUDY    73  68  84 CALM      30.15R
WHITEVILLE     CLOUDY    72  69  90 CALM      30.14S
FLORENCE       CLOUDY    74  70  87 E3        30.14R
DARLINGTON     CLOUDY    73  66  78 CALM      30.16R

....................REST OF NORTH CAROLINA......................

.........EASTERN NC.........

CITY           SKY/WX    TMP DP  RH WIND       PRES   REMARKS
CAPE HATTERAS  PTCLDY    68  63  84 NE5       30.13R
JACKSONVILLE   CLOUDY    72  66  83 CALM      30.15R
MOREHEAD CITY  MOCLDY    71  66  84 N3        30.13R
KENANSVILLE    CLOUDY    70  67  90 CALM      30.16R
NEW BERN       CLOUDY    74  67  78 CALM      30.15R
ELIZABETH CITY CLOUDY    69  61  75 E5        30.14R

.........CENTRAL NC.........

CITY           SKY/WX    TMP DP  RH WIND       PRES   REMARKS
RALEIGH DURHAM CLOUDY    70  65  84 CALM      30.15R
ROCKY MOUNT    CLOUDY    70  67  90 CALM      30.14S
ROANOKE RAPIDS NOT AVBL
FAYETTEVILLE   CLOUDY    74  67  78 W3        30.14R
HOFFMAN        CLOUDY    72  66  83 N1        30.16R

.........WESTERN NC.........

CITY           SKY/WX    TMP DP  RH WIND       PRES   REMARKS
CHARLOTTE      LGT RAIN  73  66  78 SE6       30.15F
GREENSBORO     CLOUDY    70  65  84 SW7       30.15R
HICKORY        NOT AVBL
BOONE          NOT AVBL
ASHEVILLE      NOT AVBL

.....................REST OF SOUTH CAROLINA.....................

.........EASTERN SC.........

CITY           SKY/WX    TMP DP  RH WIND       PRES   REMARKS
CHARLESTON     MOCLDY    77  74  90 N3        30.13R
BEAUFORT MCAS  MOCLDY    77  72  84 CALM      30.14R
HILTON HEAD    NOT AVBL

.........CENTRAL SC.........

CITY           SKY/WX    TMP DP  RH WIND       PRES   REMARKS
COLUMBIA       CLOUDY    75  70  84 E3        30.14R
ORANGEBURG     LGT RAIN  76  71  85 NE3       30.14R
SUMTER SHAW    CLOUDY    75  70  85 E2        30.13S

.........WESTERN SC.........

CITY           SKY/WX    TMP DP  RH WIND       PRES   REMARKS
GREENVILLE     NOT AVBL
ROCK HILL      MOCLDY    71  69  93 CALM      30.16R
ANDERSON       CLOUDY    72  69  90 SE3       30.16R
CLEMSON        NOT AVBL
GREENWOOD      CLOUDY    73  69  87 CALM      30.16R


...................COASTAL AND OFFSHORE REPORTS..................

................LOCAL PIERS AND NC RESERVE................


STATION/POSITION TIME  SKY/WX   TEMP    WIND        PRES    VSBY
                                AIR SEA DIR/SP/G
                 (UTC)          (F)     (DEG/KT/KT) (MB)    (MI)
JOHNY MRCER PIER 0100            74 82  330/  5/  7 1019.8R
NC RESRV MASNBRO 0000            74      70/  1     1019.0S
OCEAN CREST PIER 0100            73 81  320/  5/  6 1019.3R
SPRINGMAID  PIER 0100            76 81  320/  4/  5 1020.2R


................COASTAL AND OFFSHORE BUOYS................


STATION/POSITION TIME  SKY/WX   TEMP    WIND        PRES    VSBY
                                AIR SEA DIR/SP/G
                 (UTC)          (F)     (DEG/KT/KT) (MB)    (MI)
DIMNDSHOAL 41025 0100            73     360/  8/ 12 1019.9R
WVE H/P(F/S)=  3/ 8 WND WVE H/P(F/S)=  2/ 3 SWL H/P/D(F/S/D)=  3/ 40/ 8

CAPE LOOKOUT     0000            75      60/  6/  6 1019.8R
ONSLOW BAY 41036 0100            77 82   30/  4/  6 1020.4R
WVE H/P(F/S)=  2/ 7 WND WVE H/P(F/S)=  2/ 4 SWL H/P/D(F/S/D)=  2/ 70/ 7

5 WRITEBCH 41038 0000            73 81  100/  4/  6   N/A
MASONBORO  41110 0100               81                N/A
WVE H/P(F/S)=  2/ 8 WND WVE H/P(F/S)=  2/ 8

WILM HARBR 41108 0100               82                N/A
WVE H/P(F/S)=  2/ 5 WND WVE H/P(F/S)=  2/ 5

27WRITEBCH 41037 0000            74 82   90/  6/  8 1019.7R
FRYING PAN 41013 NOT AVBL
SUNST NRSH 41024 NOT AVBL
CAPRS NRSH 41029 0000            78     120/  8/ 10   N/A
EDISTO     41004 0100            80 83  110/  4/  6 1019.6R
WVE H/P(F/S)=  2/ 5 WND WVE H/P(F/S)=  2/ 4 SWL H/P/D(F/S/D)=  2/ 5



..........OFFSHORE BUOYS BEYOND 100 NM OFFSHORE...........
.....IN A TRIANGLE---HAT TO BERMUDA TO BAHAMAS TO HAT.....


STATION/POSITION TIME  SKY/WX   TEMP    WIND        PRES    VSBY
                                AIR SEA DIR/SP/G
                 (UTC)          (F)     (DEG/KT/KT) (MB)    (MI)
150E HAT   41001 NOT AVBL
W BERMUDA  41048 0016            82 83  190/  6/  8 1018.8S
WVE H/P(F/S)=  4/ 8 WND WVE H/P(F/S)=  2/ 4 SWL H/P/D(F/S/D)=  3/340/ 8

ATLANTIC S 41049 0006            83 85   10/ 14/ 16 1016.8R
WVE H/P(F/S)=  8/15 WND WVE H/P(F/S)=  3/ 5 SWL H/P/D(F/S/D)=  7/ 80/15

E BAHAMAS  41046 0013            83 84   70/ 10/ 12 1017.6R
WVE H/P(F/S)=  5/12 WND WVE H/P(F/S)=  2/ 5 SWL H/P/D(F/S/D)=  5/100/12

NE BAHAMAS 41047 0023            82 84   80/  8/ 10 1019.6R
WVE H/P(F/S)=  3/ 6 WND WVE H/P(F/S)=  2/ 4 SWL H/P/D(F/S/D)=  3/130/ 6

120E CANVRL41010 0100            83 86  170/  2/  4 1020.2R
WVE H/P(F/S)=  2/ 8 SWL H/P/D(F/S/D)=  2/110/ 8


END


USA.gov is the U.S. government's official web portal to all federal, state and local government web resources and services.